sat.trackr.live / text

‹ back to catalog

STARLINK-37819

NORAD 69652 · 2026-143D

PAYLOAD ACTIVE UNKNOWN

§ Identity

Operator
Country
US
Launch date
2026-06-21
Launch site
AFWTR
Launch vehicle
Mass (kg)
RCS (m²)

Purposes: comms

External: N2YO · Heavens-Above · Gunter

§ Orbital elements

Epoch: 2026-09-19T08:30:11.759328Z

Period
93.91 min
Inclination
97.2831°
Eccentricity
0.0001374
Mean motion
15.33451704 rev/d
Perigee alt
464.6 km
Apogee alt
466.5 km
Semi-major
6,843.7 km
B*
3.3985e-4
RAAN
305.5078°
Arg perigee
100.8450°
Mean anomaly
259.2948°
Rev number
1,503

§ Raw data

STARLINK-378191 69652U 26143D   26262.35430277  .00010915  00000+0  33985-3 0  99992 69652  97.2831 305.5078 0001374 100.8450 259.2948 15.33451704 15032

JSON: /api/v1/satellites/69652 · /tle

For live sub-satellite position, see the globe view (requires WebGL).

§ Visibility from observer

Set your observer location to see the next 7 days of passes ≥ 10°. The values pass through the URL so the page stays shareable.

No JS? Fill the form by hand. The geolocation button needs JavaScript.